User: anonymous   Login
Location: Newark
(12.5331°N, 56.4669°W)
Time: 19:08:59
(UTC+00:00)
Language:

Envisat - Orbit

View from above orbital plane
View from above orbital plane
View from above satellite
View from above satellite

Ground track
Ground track

The orbit data is extracted from the following two-line orbital elements,

1 27386U 02009A   20050.52872038  .00000013  00000-0  17792-4 0  9993
2 27386  98.1399  63.8120 0001187  93.7706  79.4959 14.37971765941520
Epoch (UTC): 19 February 2020 12:41:21
Eccentricity: 0.0001187
inclination: 98.1399°
perigee height: 764 km
apogee height: 766 km
right ascension of ascending node: 63.8120°
argument of perigee: 93.7706°
revolutions per day: 14.37971765
mean anomaly at epoch: 79.4959°
orbit number at epoch: 94152

The dashed part of the orbit path shows where the satellite is in the earth's shadow,  

DLR